Tracking 30995 objects as of 5-Jul-2025
HD Live streaming from Space Station
objects crossing your sky now

STARLINK-4348

Track STARLINK-4348 now!
10-day predictions
STARLINK-4348 is classified as:


NORAD ID: 53075
Int'l Code: 2022-077AJ
Perigee: 568.6 km
Apogee: 571.7 km
Inclination: 97.7 °
Period: 95.9 minutes
Semi major axis: 6941 km
RCS: Unknown
Launch date: July 11, 2022
Source: United States (US)
Launch site: AIR FORCE WESTERN TEST RANGE (AFWTR)
Your satellite tracking list
Your tracking list is empty




NASA's NSSDC Master Catalog

Two Line Element Set (TLE):
1 53075U 22077AJ  25186.45138664  .00000937  00000-0  77520-4 0  9991
2 53075  97.6570   7.7929 0002272  82.8066 277.3416 15.01261764164401
Source of the keplerian elements: AFSPC